Year,Month,Day,Hour,Minute,Value (Times are PST for temperature in C)
2010,08,30,00,00,14.30
2010,08,30,00,01,14.30
2010,08,30,00,02,14.30
2010,08,30,00,03,14.30
2010,08,30,00,04,14.40
2010,08,30,00,05,14.40
2010,08,30,00,06,14.40
2010,08,30,00,07,14.40
2010,08,30,00,08,14.40
2010,08,30,00,09,14.40
2010,08,30,00,10,14.50
2010,08,30,00,11,14.50
2010,08,30,00,12,14.50
2010,08,30,00,13,14.50
2010,08,30,00,14,14.50
2010,08,30,00,15,14.50
2010,08,30,00,16,14.50
2010,08,30,00,17,14.50
2010,08,30,00,18,14.50
2010,08,30,00,19,14.50
2010,08,30,00,20,14.50
2010,08,30,00,21,14.50
2010,08,30,00,22,14.40
2010,08,30,00,23,14.40
2010,08,30,00,24,14.40
2010,08,30,00,25,14.40
2010,08,30,00,26,14.40
2010,08,30,00,27,14.40
2010,08,30,00,28,14.40
2010,08,30,00,29,14.40
2010,08,30,00,30,14.40
2010,08,30,00,31,14.40
2010,08,30,00,32,14.40
2010,08,30,00,33,14.40
2010,08,30,00,34,14.40
2010,08,30,00,35,14.30
2010,08,30,00,36,14.30
2010,08,30,00,37,14.20
2010,08,30,00,38,14.20
2010,08,30,00,39,14.10
2010,08,30,00,40,14.00
2010,08,30,00,41,13.90
2010,08,30,00,42,13.90
2010,08,30,00,43,13.80
2010,08,30,00,44,13.70
2010,08,30,00,45,13.70
2010,08,30,00,46,13.60
2010,08,30,00,47,13.50
2010,08,30,00,48,13.50
2010,08,30,00,49,13.40
2010,08,30,00,50,13.40
2010,08,30,00,51,13.30
2010,08,30,00,52,13.30
2010,08,30,00,53,13.30
2010,08,30,00,54,13.30
2010,08,30,00,55,13.30
2010,08,30,00,56,13.30
2010,08,30,00,57,13.30
2010,08,30,00,58,13.30
2010,08,30,00,59,13.20
2010,08,30,01,00,13.20
2010,08,30,01,01,13.20
2010,08,30,01,02,13.20
2010,08,30,01,03,13.10
2010,08,30,01,04,13.10
2010,08,30,01,05,13.10
2010,08,30,01,06,13.10
2010,08,30,01,07,13.10
2010,08,30,01,08,13.10
2010,08,30,01,09,13.10
2010,08,30,01,10,13.10
2010,08,30,01,11,13.10
2010,08,30,01,12,13.10
2010,08,30,01,13,13.10
2010,08,30,01,14,13.10
2010,08,30,01,15,13.10
2010,08,30,01,16,13.10
2010,08,30,01,17,13.10
2010,08,30,01,18,13.10
2010,08,30,01,19,13.00
2010,08,30,01,20,13.00
2010,08,30,01,21,13.00
2010,08,30,01,22,13.00
2010,08,30,01,23,13.00
2010,08,30,01,24,13.00
2010,08,30,01,25,12.90
2010,08,30,01,26,12.90
2010,08,30,01,27,12.90
2010,08,30,01,28,12.90
2010,08,30,01,29,12.90
2010,08,30,01,30,12.90
2010,08,30,01,31,12.90
2010,08,30,01,32,12.90
2010,08,30,01,33,12.90
2010,08,30,01,34,12.90
2010,08,30,01,35,12.90
2010,08,30,01,36,12.90
2010,08,30,01,37,12.90
2010,08,30,01,38,12.90
2010,08,30,01,39,12.90
2010,08,30,01,40,12.80
2010,08,30,01,41,12.80
2010,08,30,01,42,12.80
2010,08,30,01,43,12.80
2010,08,30,01,44,12.80
2010,08,30,01,45,12.80
2010,08,30,01,46,12.80
2010,08,30,01,47,12.80
2010,08,30,01,48,12.80
2010,08,30,01,49,12.80
2010,08,30,01,50,12.80
2010,08,30,01,51,12.80
2010,08,30,01,52,12.80
2010,08,30,01,53,12.80
2010,08,30,01,54,12.80
2010,08,30,01,55,12.80
2010,08,30,01,56,12.70
2010,08,30,01,57,12.70
2010,08,30,01,58,12.70
2010,08,30,01,59,12.70
2010,08,30,02,00,12.70
2010,08,30,02,01,12.70
2010,08,30,02,02,12.70
2010,08,30,02,03,12.60
2010,08,30,02,04,12.60
2010,08,30,02,05,12.50
2010,08,30,02,06,12.50
2010,08,30,02,07,12.40
2010,08,30,02,08,12.40
2010,08,30,02,09,12.30
2010,08,30,02,10,12.30
2010,08,30,02,11,12.30
2010,08,30,02,12,12.30
2010,08,30,02,13,12.30
2010,08,30,02,14,12.30
2010,08,30,02,15,12.20
2010,08,30,02,16,12.20
2010,08,30,02,17,12.20
2010,08,30,02,18,12.20
2010,08,30,02,19,12.10
2010,08,30,02,20,12.10
2010,08,30,02,21,12.10
2010,08,30,02,22,12.00
2010,08,30,02,23,12.00
2010,08,30,02,24,12.00
2010,08,30,02,25,12.00
2010,08,30,02,26,12.00
2010,08,30,02,27,12.00
2010,08,30,02,28,12.00
2010,08,30,02,29,12.00
2010,08,30,02,30,12.00
2010,08,30,02,31,12.00
2010,08,30,02,32,12.00
2010,08,30,02,33,12.00
2010,08,30,02,34,12.00
2010,08,30,02,35,12.00
2010,08,30,02,36,12.00
2010,08,30,02,37,11.90
2010,08,30,02,38,11.90
2010,08,30,02,39,11.90
2010,08,30,02,40,11.90
2010,08,30,02,41,11.90
2010,08,30,02,42,11.90
2010,08,30,02,43,11.90
2010,08,30,02,44,11.90
2010,08,30,02,45,11.90
2010,08,30,02,46,11.90
2010,08,30,02,47,11.90
2010,08,30,02,48,11.90
2010,08,30,02,49,11.90
2010,08,30,02,50,11.90
2010,08,30,02,51,11.90
2010,08,30,02,52,11.90
2010,08,30,02,53,11.90
2010,08,30,02,54,11.90
2010,08,30,02,55,11.90
2010,08,30,02,56,11.90
2010,08,30,02,57,11.90
2010,08,30,02,58,11.90
2010,08,30,02,59,12.00
2010,08,30,03,00,12.00
2010,08,30,03,01,12.00
2010,08,30,03,02,12.00
2010,08,30,03,03,12.00
2010,08,30,03,04,12.00
2010,08,30,03,05,12.00
2010,08,30,03,06,12.00
2010,08,30,03,07,12.00
2010,08,30,03,08,12.00
2010,08,30,03,09,12.00
2010,08,30,03,10,12.00
2010,08,30,03,11,12.00
2010,08,30,03,12,12.00
2010,08,30,03,13,12.00
2010,08,30,03,14,12.00
2010,08,30,03,15,12.00
2010,08,30,03,16,12.00
2010,08,30,03,17,12.00
2010,08,30,03,18,12.00
2010,08,30,03,19,12.00
2010,08,30,03,20,12.00
2010,08,30,03,21,12.00
2010,08,30,03,22,12.00
2010,08,30,03,23,12.00
2010,08,30,03,24,11.90
2010,08,30,03,25,11.90
2010,08,30,03,26,11.90
2010,08,30,03,27,11.90
2010,08,30,03,28,11.90
2010,08,30,03,29,11.90
2010,08,30,03,30,11.90
2010,08,30,03,31,11.90
2010,08,30,03,32,11.90
2010,08,30,03,33,11.90
2010,08,30,03,34,11.90
2010,08,30,03,35,11.90
2010,08,30,03,36,11.90
2010,08,30,03,37,11.80
2010,08,30,03,38,11.80
2010,08,30,03,39,11.80
2010,08,30,03,40,11.80
2010,08,30,03,41,11.80
2010,08,30,03,42,11.80
2010,08,30,03,43,11.80
2010,08,30,03,44,11.80
2010,08,30,03,45,11.80
2010,08,30,03,46,11.80
2010,08,30,03,47,11.80
2010,08,30,03,48,11.80
2010,08,30,03,49,11.80
2010,08,30,03,50,11.80
2010,08,30,03,51,11.80
2010,08,30,03,52,11.80
2010,08,30,03,53,11.80
2010,08,30,03,54,11.80
2010,08,30,03,55,11.80
2010,08,30,03,56,11.80
2010,08,30,03,57,11.80
2010,08,30,03,58,11.80
2010,08,30,03,59,11.80
2010,08,30,04,00,11.80
2010,08,30,04,01,11.80
2010,08,30,04,02,11.80
2010,08,30,04,03,11.80
2010,08,30,04,04,11.80
2010,08,30,04,05,11.80
2010,08,30,04,06,11.80
2010,08,30,04,07,11.80
2010,08,30,04,08,11.80
2010,08,30,04,09,11.80
2010,08,30,04,10,11.70
2010,08,30,04,11,11.70
2010,08,30,04,12,11.70
2010,08,30,04,13,11.70
2010,08,30,04,14,11.70
2010,08,30,04,15,11.70
2010,08,30,04,16,11.70
2010,08,30,04,17,11.70
2010,08,30,04,18,11.70
2010,08,30,04,19,11.70
2010,08,30,04,20,11.70
2010,08,30,04,21,11.70
2010,08,30,04,22,11.60
2010,08,30,04,23,11.60
2010,08,30,04,24,11.60
2010,08,30,04,25,11.60
2010,08,30,04,26,11.60
2010,08,30,04,27,11.60
2010,08,30,04,28,11.60
2010,08,30,04,29,11.60
2010,08,30,04,30,11.60
2010,08,30,04,31,11.60
2010,08,30,04,32,11.60
2010,08,30,04,33,11.60
2010,08,30,04,34,11.60
2010,08,30,04,35,11.50
2010,08,30,04,36,11.40
2010,08,30,04,37,11.40
2010,08,30,04,38,11.40
2010,08,30,04,39,11.40
2010,08,30,04,40,11.40
2010,08,30,04,41,11.40
2010,08,30,04,42,11.40
2010,08,30,04,43,11.40
2010,08,30,04,44,11.40
2010,08,30,04,45,11.40
2010,08,30,04,46,11.40
2010,08,30,04,47,11.30
2010,08,30,04,48,11.30
2010,08,30,04,49,11.30
2010,08,30,04,50,11.30
2010,08,30,04,51,11.30
2010,08,30,04,52,11.30
2010,08,30,04,53,11.30
2010,08,30,04,54,11.30
2010,08,30,04,55,11.20
2010,08,30,04,56,11.20
2010,08,30,04,57,11.20
2010,08,30,04,58,11.10
2010,08,30,04,59,11.10
2010,08,30,05,00,11.10
2010,08,30,05,01,11.10
2010,08,30,05,02,11.10
2010,08,30,05,03,11.10
2010,08,30,05,04,11.10
2010,08,30,05,05,11.10
2010,08,30,05,06,10.90
2010,08,30,05,07,10.90
2010,08,30,05,08,10.90
2010,08,30,05,09,10.90
2010,08,30,05,10,10.90
2010,08,30,05,11,10.90
2010,08,30,05,12,10.90
2010,08,30,05,13,10.90
2010,08,30,05,14,10.90
2010,08,30,05,15,10.90
2010,08,30,05,16,10.90
2010,08,30,05,17,10.90
2010,08,30,05,18,10.80
2010,08,30,05,19,10.80
2010,08,30,05,20,10.80
2010,08,30,05,21,10.70
2010,08,30,05,22,10.70
2010,08,30,05,23,10.70
2010,08,30,05,24,10.60
2010,08,30,05,25,10.70
2010,08,30,05,26,10.70
2010,08,30,05,27,10.70
2010,08,30,05,28,10.70
2010,08,30,05,29,10.60
2010,08,30,05,30,10.60
2010,08,30,05,31,10.60
2010,08,30,05,32,10.60
2010,08,30,05,33,10.60
2010,08,30,05,34,10.60
2010,08,30,05,35,10.50
2010,08,30,05,36,10.40
2010,08,30,05,37,10.40
2010,08,30,05,38,10.40
2010,08,30,05,39,10.40
2010,08,30,05,40,10.40
2010,08,30,05,41,10.40
2010,08,30,05,42,10.40
2010,08,30,05,43,10.40
2010,08,30,05,44,10.40
2010,08,30,05,45,10.40
2010,08,30,05,46,10.40
2010,08,30,05,47,10.40
2010,08,30,05,48,10.40
2010,08,30,05,49,10.40
2010,08,30,05,50,10.40
2010,08,30,05,51,10.30
2010,08,30,05,52,10.30
2010,08,30,05,53,10.30
2010,08,30,05,54,10.30
2010,08,30,05,55,10.30
2010,08,30,05,56,10.30
2010,08,30,05,57,10.20
2010,08,30,05,58,10.20
2010,08,30,05,59,10.20
2010,08,30,06,00,10.20
2010,08,30,06,01,10.10
2010,08,30,06,02,10.10
2010,08,30,06,03,10.10
2010,08,30,06,04,10.10
2010,08,30,06,05,10.10
2010,08,30,06,06,10.10
2010,08,30,06,07,10.10
2010,08,30,06,08,10.10
2010,08,30,06,09,10.10
2010,08,30,06,10,10.10
2010,08,30,06,11,10.10
2010,08,30,06,12,10.00
2010,08,30,06,13,9.90
2010,08,30,06,14,9.90
2010,08,30,06,15,9.90
2010,08,30,06,16,9.90
2010,08,30,06,17,9.90
2010,08,30,06,18,9.90
2010,08,30,06,19,9.90
2010,08,30,06,20,9.90
2010,08,30,06,21,9.90
2010,08,30,06,22,9.90
2010,08,30,06,23,9.90
2010,08,30,06,24,9.90
2010,08,30,06,25,9.90
2010,08,30,06,26,9.90
2010,08,30,06,27,9.90
2010,08,30,06,28,9.90
2010,08,30,06,29,9.90
2010,08,30,06,30,9.90
2010,08,30,06,31,9.90
2010,08,30,06,32,9.90
2010,08,30,06,33,9.90
2010,08,30,06,34,9.90
2010,08,30,06,35,9.90
2010,08,30,06,36,9.90
2010,08,30,06,37,9.90
2010,08,30,06,38,9.90
2010,08,30,06,39,9.90
2010,08,30,06,40,9.90
2010,08,30,06,41,9.90
2010,08,30,06,42,9.90
2010,08,30,06,43,9.90
2010,08,30,06,44,9.90
2010,08,30,06,45,9.90
2010,08,30,06,46,9.90
2010,08,30,06,47,9.90
2010,08,30,06,48,9.90
2010,08,30,06,49,9.90
2010,08,30,06,50,9.90
2010,08,30,06,51,9.90
2010,08,30,06,52,9.80
2010,08,30,06,53,9.80
2010,08,30,06,54,9.80
2010,08,30,06,55,9.80
2010,08,30,06,56,9.80
2010,08,30,06,57,9.80
2010,08,30,06,58,9.80
2010,08,30,06,59,9.80
2010,08,30,07,00,9.90
2010,08,30,07,01,9.90
2010,08,30,07,02,9.90
2010,08,30,07,03,9.90
2010,08,30,07,04,9.90
2010,08,30,07,05,10.00
2010,08,30,07,06,10.10
2010,08,30,07,07,10.10
2010,08,30,07,08,10.10
2010,08,30,07,09,10.10
2010,08,30,07,10,10.20
2010,08,30,07,11,10.20
2010,08,30,07,12,10.20
2010,08,30,07,13,10.30
2010,08,30,07,14,10.30
2010,08,30,07,15,10.30
2010,08,30,07,16,10.30
2010,08,30,07,17,10.30
2010,08,30,07,18,10.30
2010,08,30,07,19,10.40
2010,08,30,07,20,10.40
2010,08,30,07,21,10.40
2010,08,30,07,22,10.40
2010,08,30,07,23,10.40
2010,08,30,07,24,10.40
2010,08,30,07,25,10.40
2010,08,30,07,26,10.50
2010,08,30,07,27,10.60
2010,08,30,07,28,10.60
2010,08,30,07,29,10.60
2010,08,30,07,30,10.60
2010,08,30,07,31,10.60
2010,08,30,07,32,10.70
2010,08,30,07,33,10.70
2010,08,30,07,34,10.70
2010,08,30,07,35,10.80
2010,08,30,07,36,10.80
2010,08,30,07,37,10.90
2010,08,30,07,38,10.90
2010,08,30,07,39,10.90
2010,08,30,07,40,10.90
2010,08,30,07,41,11.00
2010,08,30,07,42,11.10
2010,08,30,07,43,11.10
2010,08,30,07,44,11.10
2010,08,30,07,45,11.10
2010,08,30,07,46,11.10
2010,08,30,07,47,11.10
2010,08,30,07,48,11.10
2010,08,30,07,49,11.10
2010,08,30,07,50,11.10
2010,08,30,07,51,11.20
2010,08,30,07,52,11.20
2010,08,30,07,53,11.20
2010,08,30,07,54,11.30
2010,08,30,07,55,11.30
2010,08,30,07,56,11.40
2010,08,30,07,57,11.40
2010,08,30,07,58,11.40
2010,08,30,07,59,11.40
2010,08,30,08,00,11.40
2010,08,30,08,01,11.50
2010,08,30,08,02,11.60
2010,08,30,08,03,11.60
2010,08,30,08,04,11.60
2010,08,30,08,05,11.70
2010,08,30,08,06,11.70
2010,08,30,08,07,11.80
2010,08,30,08,08,11.80
2010,08,30,08,09,11.80
2010,08,30,08,10,11.80
2010,08,30,08,11,11.90
2010,08,30,08,12,12.00
2010,08,30,08,13,12.10
2010,08,30,08,14,12.20
2010,08,30,08,15,12.30
2010,08,30,08,16,12.50
2010,08,30,08,17,12.60
2010,08,30,08,18,12.60
2010,08,30,08,19,12.70
2010,08,30,08,20,12.80
2010,08,30,08,21,12.80
2010,08,30,08,22,12.80
2010,08,30,08,23,12.80
2010,08,30,08,24,12.80
2010,08,30,08,25,12.80
2010,08,30,08,26,12.70
2010,08,30,08,27,12.70
2010,08,30,08,28,12.70
2010,08,30,08,29,12.70
2010,08,30,08,30,12.80
2010,08,30,08,31,12.80
2010,08,30,08,32,13.00
2010,08,30,08,33,13.00
2010,08,30,08,34,13.10
2010,08,30,08,35,13.10
2010,08,30,08,36,13.10
2010,08,30,08,37,13.20
2010,08,30,08,38,13.20
2010,08,30,08,39,13.30
2010,08,30,08,40,13.30
2010,08,30,08,41,13.30
2010,08,30,08,42,13.40
2010,08,30,08,43,13.40
2010,08,30,08,44,13.50
2010,08,30,08,45,13.50
2010,08,30,08,46,13.60
2010,08,30,08,47,13.60
2010,08,30,08,48,13.70
2010,08,30,08,49,13.70
2010,08,30,08,50,13.70
2010,08,30,08,51,13.70
2010,08,30,08,52,13.70
2010,08,30,08,53,13.70
2010,08,30,08,54,13.70
2010,08,30,08,55,13.70
2010,08,30,08,56,13.70
2010,08,30,08,57,13.70
2010,08,30,08,58,13.70
2010,08,30,08,59,13.70
2010,08,30,09,00,13.60
2010,08,30,09,01,13.50
2010,08,30,09,02,13.30
2010,08,30,09,03,13.20
2010,08,30,09,04,13.10
2010,08,30,09,05,13.10
2010,08,30,09,06,13.00
2010,08,30,09,07,12.90
2010,08,30,09,08,12.80
2010,08,30,09,09,12.70
2010,08,30,09,10,12.70
2010,08,30,09,11,12.60
2010,08,30,09,12,12.60
2010,08,30,09,13,12.60
2010,08,30,09,14,12.60
2010,08,30,09,15,12.70
2010,08,30,09,16,12.70
2010,08,30,09,17,12.70
2010,08,30,09,18,12.70
2010,08,30,09,19,12.70
2010,08,30,09,20,12.70
2010,08,30,09,21,12.70
2010,08,30,09,22,12.60
2010,08,30,09,23,12.60
2010,08,30,09,24,12.60
2010,08,30,09,25,12.60
2010,08,30,09,26,12.60
2010,08,30,09,27,12.70
2010,08,30,09,28,12.80
2010,08,30,09,29,12.80
2010,08,30,09,30,12.90
2010,08,30,09,31,13.00
2010,08,30,09,32,13.00
2010,08,30,09,33,13.00
2010,08,30,09,34,13.00
2010,08,30,09,35,13.00
2010,08,30,09,36,13.00
2010,08,30,09,37,13.00
2010,08,30,09,38,13.00
2010,08,30,09,39,13.00
2010,08,30,09,40,13.00
2010,08,30,09,41,12.90
2010,08,30,09,42,12.90
2010,08,30,09,43,12.90
2010,08,30,09,44,12.90
2010,08,30,09,45,12.80
2010,08,30,09,46,12.80
2010,08,30,09,47,12.80
2010,08,30,09,48,12.80
2010,08,30,09,49,12.80
2010,08,30,09,50,12.80
2010,08,30,09,51,12.80
2010,08,30,09,52,12.90
2010,08,30,09,53,12.90
2010,08,30,09,54,12.90
2010,08,30,09,55,12.90
2010,08,30,09,56,12.80
2010,08,30,09,57,12.70
2010,08,30,09,58,12.60
2010,08,30,09,59,12.60
2010,08,30,10,00,12.70
2010,08,30,10,01,12.70
2010,08,30,10,02,12.70
2010,08,30,10,03,12.70
2010,08,30,10,04,12.70
2010,08,30,10,05,12.80
2010,08,30,10,06,12.80
2010,08,30,10,07,12.80
2010,08,30,10,08,12.80
2010,08,30,10,09,12.80
2010,08,30,10,10,12.80
2010,08,30,10,11,12.90
2010,08,30,10,12,12.90
2010,08,30,10,13,13.00
2010,08,30,10,14,13.10
2010,08,30,10,15,13.10
2010,08,30,10,16,13.20
2010,08,30,10,17,13.30
2010,08,30,10,18,13.30
2010,08,30,10,19,13.20
2010,08,30,10,20,13.10
2010,08,30,10,21,13.10
2010,08,30,10,22,13.10
2010,08,30,10,23,13.20
2010,08,30,10,24,13.30
2010,08,30,10,25,13.30
2010,08,30,10,26,13.30
2010,08,30,10,27,13.30
2010,08,30,10,28,13.30
2010,08,30,10,29,13.30
2010,08,30,10,30,13.30
2010,08,30,10,31,13.20
2010,08,30,10,32,13.20
2010,08,30,10,33,13.20
2010,08,30,10,34,13.20
2010,08,30,10,35,13.30
2010,08,30,10,36,13.30
2010,08,30,10,37,13.30
2010,08,30,10,38,13.40
2010,08,30,10,39,13.40
2010,08,30,10,40,13.30
2010,08,30,10,41,13.30
2010,08,30,10,42,13.30
2010,08,30,10,43,13.30
2010,08,30,10,44,13.30
2010,08,30,10,45,13.30
2010,08,30,10,46,13.30
2010,08,30,10,47,13.30
2010,08,30,10,48,13.30
2010,08,30,10,49,13.30
2010,08,30,10,50,13.30
2010,08,30,10,51,13.30
2010,08,30,10,52,13.30
2010,08,30,10,53,13.40
2010,08,30,10,54,13.50
2010,08,30,10,55,13.60
2010,08,30,10,56,13.60
2010,08,30,10,57,13.60
2010,08,30,10,58,13.60
2010,08,30,10,59,13.70
2010,08,30,11,00,13.80
2010,08,30,11,01,13.80
2010,08,30,11,02,13.90
2010,08,30,11,03,13.90
2010,08,30,11,04,13.90
2010,08,30,11,05,13.80
2010,08,30,11,06,13.70
2010,08,30,11,07,13.80
2010,08,30,11,08,13.80
2010,08,30,11,09,13.80
2010,08,30,11,10,13.70
2010,08,30,11,11,13.70
2010,08,30,11,12,13.70
2010,08,30,11,13,13.70
2010,08,30,11,14,13.80
2010,08,30,11,15,13.90
2010,08,30,11,16,14.00
2010,08,30,11,17,14.10
2010,08,30,11,18,14.20
2010,08,30,11,19,14.10
2010,08,30,11,20,14.10
2010,08,30,11,21,14.10
2010,08,30,11,22,14.10
2010,08,30,11,23,14.10
2010,08,30,11,24,14.10
2010,08,30,11,25,14.10
2010,08,30,11,26,14.10
2010,08,30,11,27,14.10
2010,08,30,11,28,14.10
2010,08,30,11,29,14.10
2010,08,30,11,30,14.10
2010,08,30,11,31,14.20
2010,08,30,11,32,14.20
2010,08,30,11,33,14.20
2010,08,30,11,34,14.20
2010,08,30,11,35,14.30
2010,08,30,11,36,14.30
2010,08,30,11,37,14.40
2010,08,30,11,38,14.40
2010,08,30,11,39,14.30
2010,08,30,11,40,14.30
2010,08,30,11,41,14.30
2010,08,30,11,42,14.40
2010,08,30,11,43,14.40
2010,08,30,11,44,14.30
2010,08,30,11,45,14.30
2010,08,30,11,46,14.40
2010,08,30,11,47,14.50
2010,08,30,11,48,14.60
2010,08,30,11,49,14.70
2010,08,30,11,50,14.60
2010,08,30,11,51,14.50
2010,08,30,11,52,14.40
2010,08,30,11,53,14.20
2010,08,30,11,54,14.20
2010,08,30,11,55,14.20
2010,08,30,11,56,14.30
2010,08,30,11,57,14.30
2010,08,30,11,58,14.20
2010,08,30,11,59,14.20
2010,08,30,12,00,14.20
2010,08,30,12,01,14.30
2010,08,30,12,02,14.30
2010,08,30,12,03,14.30
2010,08,30,12,04,14.30
2010,08,30,12,05,14.40
2010,08,30,12,06,14.50
2010,08,30,12,07,14.60
2010,08,30,12,08,14.70
2010,08,30,12,09,14.60
2010,08,30,12,10,14.60
2010,08,30,12,11,14.50
2010,08,30,12,12,14.50
2010,08,30,12,13,14.50
2010,08,30,12,14,14.50
2010,08,30,12,15,14.60
2010,08,30,12,16,14.60
2010,08,30,12,17,14.70
2010,08,30,12,18,14.70
2010,08,30,12,19,14.80
2010,08,30,12,20,14.90
2010,08,30,12,21,15.00
2010,08,30,12,22,15.00
2010,08,30,12,23,15.00
2010,08,30,12,24,15.00
2010,08,30,12,25,15.00
2010,08,30,12,26,15.10
2010,08,30,12,27,15.10
2010,08,30,12,28,15.10
2010,08,30,12,29,15.10
2010,08,30,12,30,15.20
2010,08,30,12,31,15.20
2010,08,30,12,32,15.30
2010,08,30,12,33,15.30
2010,08,30,12,34,15.30
2010,08,30,12,35,15.20
2010,08,30,12,36,15.20
2010,08,30,12,37,15.20
2010,08,30,12,38,15.20
2010,08,30,12,39,15.30
2010,08,30,12,40,15.30
2010,08,30,12,41,15.30
2010,08,30,12,42,15.20
2010,08,30,12,43,15.30
2010,08,30,12,44,15.40
2010,08,30,12,45,15.50
2010,08,30,12,46,15.50
2010,08,30,12,47,15.50
2010,08,30,12,48,15.40
2010,08,30,12,49,15.40
2010,08,30,12,50,15.40
2010,08,30,12,51,15.40
2010,08,30,12,52,15.40
2010,08,30,12,53,15.40
2010,08,30,12,54,15.40
2010,08,30,12,55,15.40
2010,08,30,12,56,15.30
2010,08,30,12,57,15.20
2010,08,30,12,58,15.20
2010,08,30,12,59,15.30
2010,08,30,13,00,15.50
2010,08,30,13,01,15.60
2010,08,30,13,02,15.70
2010,08,30,13,03,15.80
2010,08,30,13,04,15.80
2010,08,30,13,05,15.80
2010,08,30,13,06,15.80
2010,08,30,13,07,15.80
2010,08,30,13,08,15.70
2010,08,30,13,09,15.60
2010,08,30,13,10,15.50
2010,08,30,13,11,15.40
2010,08,30,13,12,15.30
2010,08,30,13,13,15.30
2010,08,30,13,14,15.30
2010,08,30,13,15,15.30
2010,08,30,13,16,15.30
2010,08,30,13,17,15.20
2010,08,30,13,18,15.10
2010,08,30,13,19,15.10
2010,08,30,13,20,15.10
2010,08,30,13,21,15.10
2010,08,30,13,22,15.00
2010,08,30,13,23,15.00
2010,08,30,13,24,14.90
2010,08,30,13,25,14.80
2010,08,30,13,26,14.90
2010,08,30,13,27,15.00
2010,08,30,13,28,15.00
2010,08,30,13,29,15.00
2010,08,30,13,30,15.10
2010,08,30,13,31,15.10
2010,08,30,13,32,15.20
2010,08,30,13,33,15.30
2010,08,30,13,34,15.20
2010,08,30,13,35,15.10
2010,08,30,13,36,15.10
2010,08,30,13,37,15.20
2010,08,30,13,38,15.20
2010,08,30,13,39,15.10
2010,08,30,13,40,15.20
2010,08,30,13,41,15.20
2010,08,30,13,42,15.20
2010,08,30,13,43,15.20
2010,08,30,13,44,15.10
2010,08,30,13,45,15.10
2010,08,30,13,46,15.10
2010,08,30,13,47,15.10
2010,08,30,13,48,15.10
2010,08,30,13,49,15.00
2010,08,30,13,50,15.00
2010,08,30,13,51,15.10
2010,08,30,13,52,15.00
2010,08,30,13,53,15.10
2010,08,30,13,54,15.10
2010,08,30,13,55,15.20
2010,08,30,13,56,15.30
2010,08,30,13,57,15.30
2010,08,30,13,58,15.30
2010,08,30,13,59,15.30
2010,08,30,14,00,15.30
2010,08,30,14,01,15.30
2010,08,30,14,02,15.20
2010,08,30,14,03,15.20
2010,08,30,14,04,15.20
2010,08,30,14,05,15.30
2010,08,30,14,06,15.40
2010,08,30,14,07,15.50
2010,08,30,14,08,15.50
2010,08,30,14,09,15.60
2010,08,30,14,10,15.70
2010,08,30,14,11,15.60
2010,08,30,14,12,15.60
2010,08,30,14,13,15.50
2010,08,30,14,14,15.50
2010,08,30,14,15,15.50
2010,08,30,14,16,15.50
2010,08,30,14,17,15.60
2010,08,30,14,18,15.60
2010,08,30,14,19,15.60
2010,08,30,14,20,15.50
2010,08,30,14,21,15.50
2010,08,30,14,22,15.50
2010,08,30,14,23,15.50
2010,08,30,14,24,15.50
2010,08,30,14,25,15.60
2010,08,30,14,26,15.70
2010,08,30,14,27,15.90
2010,08,30,14,28,16.00
2010,08,30,14,29,16.10
2010,08,30,14,30,16.00
2010,08,30,14,31,15.90
2010,08,30,14,32,16.00
2010,08,30,14,33,16.00
2010,08,30,14,34,15.90
2010,08,30,14,35,15.80
2010,08,30,14,36,15.80
2010,08,30,14,37,15.70
2010,08,30,14,38,15.70
2010,08,30,14,39,15.60
2010,08,30,14,40,15.50
2010,08,30,14,41,15.60
2010,08,30,14,42,15.50
2010,08,30,14,43,15.60
2010,08,30,14,44,15.60
2010,08,30,14,45,15.70
2010,08,30,14,46,15.80
2010,08,30,14,47,15.80
2010,08,30,14,48,15.80
2010,08,30,14,49,15.80
2010,08,30,14,50,15.80
2010,08,30,14,51,15.80
2010,08,30,14,52,15.80
2010,08,30,14,53,15.90
2010,08,30,14,54,16.00
2010,08,30,14,55,16.20
2010,08,30,14,56,16.30
2010,08,30,14,57,16.40
2010,08,30,14,58,16.40
2010,08,30,14,59,16.40
2010,08,30,15,00,16.60
2010,08,30,15,01,16.50
2010,08,30,15,02,16.40
2010,08,30,15,03,16.40
2010,08,30,15,04,16.40
2010,08,30,15,05,16.40
2010,08,30,15,06,16.40
2010,08,30,15,07,16.40
2010,08,30,15,08,16.30
2010,08,30,15,09,16.20
2010,08,30,15,10,16.20
2010,08,30,15,11,16.10
2010,08,30,15,12,16.10
2010,08,30,15,13,16.10
2010,08,30,15,14,16.00
2010,08,30,15,15,16.00
2010,08,30,15,16,16.00
2010,08,30,15,17,16.10
2010,08,30,15,18,16.10
2010,08,30,15,19,16.10
2010,08,30,15,20,16.10
2010,08,30,15,21,16.00
2010,08,30,15,22,15.80
2010,08,30,15,23,15.70
2010,08,30,15,24,15.60
2010,08,30,15,25,15.50
2010,08,30,15,26,15.40
2010,08,30,15,27,15.40
2010,08,30,15,28,15.40
2010,08,30,15,29,15.30
2010,08,30,15,30,15.40
2010,08,30,15,31,15.40
2010,08,30,15,32,15.50
2010,08,30,15,33,15.50
2010,08,30,15,34,15.40
2010,08,30,15,35,15.40
2010,08,30,15,36,15.30
2010,08,30,15,37,15.30
2010,08,30,15,38,15.20
2010,08,30,15,39,15.10
2010,08,30,15,40,15.00
2010,08,30,15,41,14.90
2010,08,30,15,42,14.90
2010,08,30,15,43,14.80
2010,08,30,15,44,14.60
2010,08,30,15,45,14.50
2010,08,30,15,46,14.50
2010,08,30,15,47,14.40
2010,08,30,15,48,14.40
2010,08,30,15,49,14.40
2010,08,30,15,50,14.50
2010,08,30,15,51,14.60
2010,08,30,15,52,14.60
2010,08,30,15,53,14.70
2010,08,30,15,54,14.70
2010,08,30,15,55,14.70
2010,08,30,15,56,14.60
2010,08,30,15,57,14.60
2010,08,30,15,58,14.60
2010,08,30,15,59,14.60
2010,08,30,16,00,14.70
2010,08,30,16,01,14.80
2010,08,30,16,02,14.80
2010,08,30,16,03,14.90
2010,08,30,16,04,14.90
2010,08,30,16,05,14.90
2010,08,30,16,06,14.80
2010,08,30,16,07,14.80
2010,08,30,16,08,14.80
2010,08,30,16,09,14.80
2010,08,30,16,10,14.80
2010,08,30,16,11,14.90
2010,08,30,16,12,14.90
2010,08,30,16,13,14.90
2010,08,30,16,14,14.90
2010,08,30,16,15,14.90
2010,08,30,16,16,14.90
2010,08,30,16,17,14.80
2010,08,30,16,18,14.80
2010,08,30,16,19,14.80
2010,08,30,16,20,14.80
2010,08,30,16,21,14.80
2010,08,30,16,22,14.80
2010,08,30,16,23,14.80
2010,08,30,16,24,14.80
2010,08,30,16,25,14.80
2010,08,30,16,26,14.90
2010,08,30,16,27,14.90
2010,08,30,16,28,15.00
2010,08,30,16,29,15.00
2010,08,30,16,30,15.10
2010,08,30,16,31,15.20
2010,08,30,16,32,15.40
2010,08,30,16,33,15.50
2010,08,30,16,34,15.70
2010,08,30,16,35,15.80
2010,08,30,16,36,15.90
2010,08,30,16,37,16.00
2010,08,30,16,38,16.10
2010,08,30,16,39,16.20
2010,08,30,16,40,16.30
2010,08,30,16,41,16.40
2010,08,30,16,42,16.50
2010,08,30,16,43,16.60
2010,08,30,16,44,16.60
2010,08,30,16,45,16.60
2010,08,30,16,46,16.60
2010,08,30,16,47,16.60
2010,08,30,16,48,16.70
2010,08,30,16,49,16.70
2010,08,30,16,50,16.70
2010,08,30,16,51,16.70
2010,08,30,16,52,16.70
2010,08,30,16,53,16.50
2010,08,30,16,54,16.40
2010,08,30,16,55,16.20
2010,08,30,16,56,16.10
2010,08,30,16,57,16.00
2010,08,30,16,58,15.90
2010,08,30,16,59,15.80
2010,08,30,17,00,15.70
2010,08,30,17,01,15.70
2010,08,30,17,02,15.60
2010,08,30,17,03,15.50
2010,08,30,17,04,15.30
2010,08,30,17,05,15.30
2010,08,30,17,06,15.30
2010,08,30,17,07,15.20
2010,08,30,17,08,15.30
2010,08,30,17,09,15.30
2010,08,30,17,10,15.30
2010,08,30,17,11,15.30
2010,08,30,17,12,15.40
2010,08,30,17,13,15.40
2010,08,30,17,14,15.50
2010,08,30,17,15,15.60
2010,08,30,17,16,15.60
2010,08,30,17,17,15.70
2010,08,30,17,18,15.80
2010,08,30,17,19,15.80
2010,08,30,17,20,15.80
2010,08,30,17,21,15.80